Zurück zum Katalog

STARLINK-32816

AktivKommunikationVLEO
NORAD 63050·PAYLOAD·🇺🇸 United States

Gestartet Feb 18, 2025 von Cape Canaveral Space Force Station

Loading…

Nächste Überflüge (nächste 24 Stunden)

TLE

AktuellSource: CelesTrak SupGP

Epoche: Sep 15, 2026, 02:36 UTC

1 63050C 25034X   26258.10881944  .00021499  00000+0  63520-3 0  2587
2 63050  53.1579 107.2120 0001243  79.2882 228.1946 15.34379835    16

Verfolge STARLINK-32816 in Echtzeit mit AllMySat

Download on the App Store